This is the latest recevied weather packets stored in our database for station/object KD8BMB. If no packets are shown the sender has not sent any weather packets the latest 10 day(s).
| Time | Temp. | Humidity | Pressure | Rain* | Wind** | Luminosity | Snow |
|---|---|---|---|---|---|---|---|
| 1777325261 | 18.89° C | 58% | 1012.7 hPa | 0 mm | - | 125 W/m² | - |
| 1777324958 | 18.89° C | 58% | 1012.6 hPa | 0 mm | - | 131 W/m² | - |
| 1777324655 | 18.89° C | 57% | 1012.7 hPa | 0 mm | - | 131 W/m² | - |
| 1777324352 | 19.44° C | 56% | 1012.6 hPa | 0 mm | - | 131 W/m² | - |
| 1777324044 | 19.44° C | 55% | 1012.9 hPa | 0 mm | - | 135 W/m² | - |
| 1777323742 | 20° C | 54% | 1013.1 hPa | 0 mm | - | 149 W/m² | - |
| 1777323438 | 19.44° C | 53% | 1013.1 hPa | 0 mm | - | 171 W/m² | - |
| 1777323136 | 20° C | 53% | 1013.2 hPa | 0 mm | - | 191 W/m² | - |
| 1777322834 | 20° C | 52% | 1013.1 hPa | 0 mm | - | 179 W/m² | - |
| 1777322532 | 19.44° C | 52% | 1013.2 hPa | 0 mm | - | 169 W/m² | - |
| 1777322229 | 20° C | 52% | 1013.2 hPa | 0 mm | - | 172 W/m² | - |
| 1777321926 | 20° C | 51% | 1013.4 hPa | 0 mm | - | 164 W/m² | - |
| 1777321622 | 20° C | 49% | 1013.6 hPa | 0 mm | - | 164 W/m² | - |
| 1777321319 | 20° C | 49% | 1013.5 hPa | 0 mm | - | 167 W/m² | - |
| 1777321016 | 20° C | 50% | 1013.6 hPa | 0 mm | - | 170 W/m² | - |
| 1777320714 | 20° C | 49% | 1013.5 hPa | 0 mm | - | 172 W/m² | - |
| 1777320410 | 20.56° C | 48% | 1013.5 hPa | 0 mm | - | 204 W/m² | - |
| 1777320107 | 20.56° C | 47% | 1013.4 hPa | 0 mm | - | 228 W/m² | - |
| 1777319805 | 20.56° C | 45% | 1013.6 hPa | 0 mm | - | 241 W/m² | - |
| 1777319501 | 20.56° C | 46% | 1013.7 hPa | 0 mm | - | 251 W/m² | - |
| 1777319199 | 20.56° C | 47% | 1013.5 hPa | 0 mm | - | 254 W/m² | - |
| 1777318896 | 20.56° C | 45% | 1013.4 hPa | 0 mm | - | 267 W/m² | - |
| 1777318592 | 20.56° C | 44% | 1013.6 hPa | 0 mm | - | 288 W/m² | - |
| 1777318289 | 21.11° C | 42% | 1013.6 hPa | 0 mm | - | 331 W/m² | - |
| 1777317985 | 21.11° C | 42% | 1013.5 hPa | 0 mm | - | 354 W/m² | - |
* Rain latest hour (hover to see other rain measurements)
** Current wind speed in m/s (hover to see current wind gust speed)